Home   Weather   Oxford   Past weeks

Flag for United Kingdom Past Weather in Oxford, England, United Kingdom — Yesterday and Last 2 Weeks

Now
34 °F

Clear.


Feels Like: 26 °F
Forecast: N/A
Wind: 9 mph from Northeast

Location: Benson

Current Time: Jan 20, 2017 at 7:58:34 pm

Latest Report: Jan 20, 2017 at 6:50 pm


Visibility: N/A

Pressure: 30.45 "Hg

Humidity: 81%

Dew Point: 28 °F

Location of OxfordLocation

Past Weather in Oxford — Graph

°F

Oxford Temperature Yesterday

Maximum temperature yesterday: 43 °F (at 1:50 pm)
Minimum temperature yesterday: 21 °F (at 1:50 am)
Average temperature yesterday: 31 °F

High & Low Weather Summary for the Past Weeks

 TemperatureHumidityPressure
High52 °F (Jan 7, 1:50 pm)100% (Jan 5, 9:50 pm)30.69 "Hg (Jan 5, 9:50 pm)
Low21 °F (Jan 19, 1:50 am)49% (Jan 18, 1:50 pm)29.39 "Hg (Jan 12, 4:02 pm)
Average39 °F88%30.24 "Hg
* Reported Jan 5 6:50 pm — Jan 20 6:50 pm, Oxford, Weather by CustomWeather, © 2017

Note: Actual official high and low records may vary slightly from our data, if they occured in-between our weather recording intervals... More about our weather records

Advertising

Oxford Weather History for the Previous 24 Hours

Scroll right to see more
 ConditionsComfort  
Time TempWeatherWind HumidityBarometerVisibility
6:50 pm
Fri, Jan 20
34 °FClear.9 mph81%30.45 "HgN/A
5:50 pm34 °FClear.9 mph87%30.45 "HgN/A
4:50 pm37 °FClear.9 mph60%30.45 "Hg10 mi
3:50 pm39 °FSunny.8 mph56%30.45 "Hg10 mi
2:50 pm43 °FSunny.9 mph49%30.45 "Hg10 mi
1:50 pm43 °FSunny.6 mph57%30.48 "Hg10 mi
12:50 pm41 °FSunny.7 mph70%30.48 "Hg10 mi
11:50 am37 °FSunny.7 mph75%30.51 "Hg10 mi
10:50 am34 °FSunny.7 mph87%30.54 "Hg10 mi
9:50 am30 °FSunny.6 mph93%30.54 "Hg10 mi
8:50 am27 °FSunny.3 mph100%30.54 "Hg10 mi
7:50 am23 °FFog.1 mph93%30.54 "HgN/A
6:50 am25 °FClear.2 mph93%30.54 "Hg10 mi
5:50 am25 °FClear.1 mph86%30.54 "Hg10 mi
4:50 am23 °FClear.3 mph100%30.54 "Hg10 mi
3:50 am25 °FClear.2 mph93%30.54 "Hg10 mi
2:50 am25 °FClear.3 mph93%30.57 "Hg10 mi
1:50 am30 °FClear.6 mph86%30.54 "Hg4 mi
12:50 am30 °FClear.6 mph93%30.57 "Hg4 mi
11:50 pm
Thu, Jan 19
30 °FClear.5 mph93%30.57 "Hg10 mi
10:50 pm32 °FClear.5 mph87%30.57 "Hg10 mi
9:50 pm32 °FClear.3 mph80%30.60 "Hg10 mi
8:50 pm28 °FClear.1 mph86%30.60 "Hg10 mi
7:50 pm34 °FClear.1 mph75%30.60 "Hg10 mi
Weather by CustomWeather, © 2017

See weather overviewHow to use our weather pages